Showing default

KUIPER-00168, 65781

Orbit data source: Space-Track

KUIPER-00168, 65781 is a payload satellite owned by Kuiper Systems (US) in LEO that was launched on Thu, 25 Sep 2025 UTC via an ATLAS V 551 launch vehicle from the Air Force Eastern Test Range (AFETR). Payload-class satellites include a variety of spacecraft equipped with specific instruments for various scientific and technological missions. These include communications satellites like Starlink; space stations such as the ISS; scientific satellites like the Hubble; Earth observation satellites from companies like Planet Labs, Umbra, and HawkEye 360; GPS; miniature CubeSats for education and research; and military/defense satellites.

Loading next visibility...
Identifier
65781, 2025-217V
Orbit
LEO
Country
Flag of USUS
Related business
Manufacturer
Kuiper Systems
Mission
Operational Commercial Communications
Bus & Motor
KUIPER, Unknown motor
Mass
~490 kg wet, ~490 kg dry
Launch date (UTC)
2025-09-25 (9 months ago)
Launch vehicle
ATLAS V 551
Launch site
Air Force Eastern Test Range (AFETR)
Object type
Payload
Rocket body
Debris
Shape & HBR
Box + 2 Pan, 3.4 m
Radar Cross Section
2.326 m², Large (>1 m²)

Expand to show TLE details & history
Last TLE update: 1 day ago

TLE from 1 day ago
0 KUIPER-00168
1 65781U 25217V   26170.63574194  .00002841  00000-0  40146-3 0  9992
2 65781  51.9012 297.3019 0000516 104.4412 255.6608 14.79936851 40184
Epoch: 2026-06-19T15:15Z
TLE epoch observation values (Epoch: 2026-06-19T15:15:28.103Z)
Latitude
Longitude
160.57292°
Altitude
630.36 km
Speed
7.544 km/s
True Right ascension
19h 49m 12s
True Declination
0° 00' 00"
Sunlit
Object was in full shadow at epoch
Visualization orbit readout
Latitude
Unknown
Longitude
Unknown
Altitude
Unknown
Speed
Unknown
Apparent Right ascension
Unknown
Apparent Declination
Unknown
Sunlit
N/A
Visualization observer readout
Local Sidereal Time
07:15:47
Azimuth
Unknown
Elevation
Unknown
Doppler factor
Unknown
Orbital elements
Apogee altitude
630.336 km
Perigee altitude
629.613 km
Semi-major axis
7,008.111 km
Eccentricity
0.00005
Inclination
51.9012°
RAAN
297.3019°
Arg. of periapsis
104.4412°
True anomaly
255.65507°
Mean anomaly
255.6608°
Eccentric anomaly
255.65794°
Mean motion
3.69949 °/min
Orbital period
97.31 mins
BSTAR
0.00040146
Loading maneuver chart data...
Computing Atmospheric mass density...
Loading historical data...
Loading historical data...
Loading historical data...
Loading historical data...
Loading historical data...
Loading historical data...
Loading historical data...

Documentation

Showing up to 5 results
|